CSC8619 ZULS-ZUUU

Flight info

Callsign CSC8619
Flight time 1h 41m
Altitude 31100
Route LXA W500 DM W9 LADUP
Aircraft A319/M-SDE3FGHIRWY/LB1

Departure

Time 2026-04-29 13:53
Airport Lhasa Gonggar International Airport (ZULS)

Arrival

Time 2026-04-29 15:34
Airport Chengdu Shuangliu International Airport (ZUUU)
Time Latitude Longitude Altitude Speed Heading
2026-04-29 13:25 29.29214 90.89320 11722 ft 0 kts 110°
2026-04-29 13:44 29.29216 90.89315 11721 ft 2 kts 110°
2026-04-29 13:44 29.29223 90.89294 11721 ft 3 kts 110°
2026-04-29 13:44 29.29229 90.89275 11721 ft 2 kts 110°
2026-04-29 13:44 29.29233 90.89256 11721 ft 3 kts 77°
2026-04-29 13:45 29.29226 90.89241 11721 ft 3 kts 20°
2026-04-29 13:45 29.29207 90.89236 11721 ft 3 kts
2026-04-29 13:45 29.29191 90.89233 11721 ft 1 kts 17°
2026-04-29 13:45 29.29191 90.89232 11721 ft 0 kts 17°
2026-04-29 13:47 29.29194 90.89234 11721 ft 2 kts 17°
2026-04-29 13:47 29.29221 90.89238 11721 ft 6 kts 353°
2026-04-29 13:47 29.29272 90.89240 11531 ft 9 kts 13°
2026-04-29 13:48 29.29347 90.89266 11527 ft 13 kts 17°
2026-04-29 13:48 29.29445 90.89303 11530 ft 11 kts 19°
2026-04-29 13:48 29.29506 90.89318 11524 ft 7 kts 339°
2026-04-29 13:48 29.29515 90.89267 11532 ft 8 kts 269°
2026-04-29 13:49 29.29529 90.89206 11527 ft 9 kts 318°
2026-04-29 13:49 29.29593 90.89195 11526 ft 10 kts 359°
2026-04-29 13:49 29.29670 90.89194 11521 ft 12 kts 359°
2026-04-29 13:49 29.29748 90.89193 11526 ft 7 kts
2026-04-29 13:50 29.29777 90.89230 11518 ft 7 kts 86°
2026-04-29 13:50 29.29777 90.89234 11518 ft 0 kts 88°
2026-04-29 13:51 29.29777 90.89243 11528 ft 8 kts 88°
2026-04-29 13:51 29.29783 90.89471 11531 ft 50 kts 89°
2026-04-29 13:52 29.29791 90.90068 11538 ft 100 kts 89°
2026-04-29 13:52 29.29805 90.91057 11534 ft 148 kts 89°
2026-04-29 13:52 29.29824 90.92424 11521 ft 193 kts 90°
2026-04-29 13:52 29.29846 90.93929 12299 ft 186 kts 89°
2026-04-29 13:53 29.29879 90.95405 13117 ft 184 kts 88°
2026-04-29 13:53 29.29914 90.96890 13365 ft 193 kts 89°
2026-04-29 13:53 29.29934 90.98495 13466 ft 210 kts 90°
2026-04-29 13:53 29.30019 91.00234 13560 ft 229 kts 82°
2026-04-29 13:54 29.30416 91.02084 13646 ft 249 kts 70°
2026-04-29 13:54 29.31172 91.03956 13729 ft 270 kts 65°
2026-04-29 13:54 29.31772 91.06043 14086 ft 280 kts 81°
2026-04-29 13:54 29.31841 91.06513 14189 ft 281 kts 84°
2026-04-29 13:55 29.31905 91.07429 14426 ft 282 kts 90°
2026-04-29 13:56 29.31713 91.09670 15039 ft 284 kts 105°
2026-04-29 13:56 29.31174 91.11868 15476 ft 295 kts 107°
2026-04-29 13:56 29.30688 91.14247 15659 ft 316 kts 103°
2026-04-29 13:56 29.30340 91.16765 16183 ft 322 kts 99°
2026-04-29 13:57 29.30131 91.19333 16805 ft 326 kts 97°
2026-04-29 13:57 29.29947 91.21940 17418 ft 330 kts 97°
2026-04-29 13:57 29.29754 91.24571 18034 ft 334 kts 97°
2026-04-29 13:57 29.29554 91.27236 18556 ft 338 kts 97°
2026-04-29 13:58 29.29353 91.29940 19080 ft 342 kts 97°
2026-04-29 13:58 29.29150 91.32670 19602 ft 346 kts 98°
2026-04-29 13:58 29.28945 91.35428 20118 ft 350 kts 98°
2026-04-29 13:58 29.28738 91.38188 20621 ft 354 kts 98°
2026-04-29 13:59 29.28528 91.41014 21122 ft 358 kts 98°
2026-04-29 13:59 29.28317 91.43876 21616 ft 362 kts 98°
2026-04-29 13:59 29.28101 91.46760 22094 ft 366 kts 98°
2026-04-29 13:59 29.27880 91.49680 22568 ft 370 kts 98°
2026-04-29 14:00 29.27654 91.52627 23045 ft 374 kts 98°
2026-04-29 14:00 29.27410 91.55610 23482 ft 378 kts 99°
2026-04-29 14:00 29.27150 91.58622 23865 ft 381 kts 99°
2026-04-29 14:00 29.26883 91.61655 24271 ft 385 kts 99°
2026-04-29 14:01 29.26616 91.64713 24686 ft 388 kts 99°
2026-04-29 14:01 29.26349 91.67796 25102 ft 390 kts 99°
2026-04-29 14:01 29.26080 91.70906 25536 ft 393 kts 98°
2026-04-29 14:01 29.25809 91.74039 25960 ft 396 kts 98°
2026-04-29 14:02 29.25543 91.77189 26369 ft 400 kts 97°
2026-04-29 14:02 29.25363 91.80422 26499 ft 413 kts 95°
2026-04-29 14:02 29.25266 91.83750 26646 ft 425 kts 94°
2026-04-29 14:02 29.25212 91.87180 26769 ft 436 kts 93°
2026-04-29 14:03 29.25170 91.90691 26892 ft 445 kts 93°
2026-04-29 14:03 29.25116 91.94271 27014 ft 454 kts 93°
2026-04-29 14:03 29.25041 91.97921 27134 ft 463 kts 94°
2026-04-29 14:03 29.24943 92.01636 27292 ft 470 kts 94°
2026-04-29 14:04 29.24831 92.05399 27505 ft 475 kts 94°
2026-04-29 14:04 29.24713 92.09183 27794 ft 477 kts 94°
2026-04-29 14:04 29.24598 92.12947 28067 ft 480 kts 94°
2026-04-29 14:04 29.24481 92.16777 28395 ft 483 kts 94°
2026-04-29 14:05 29.24365 92.20624 28663 ft 485 kts 94°
2026-04-29 14:05 29.24255 92.24490 28944 ft 487 kts 94°
2026-04-29 14:05 29.24153 92.28374 29232 ft 489 kts 94°
2026-04-29 14:05 29.24055 92.32276 29574 ft 491 kts 93°
2026-04-29 14:06 29.23956 92.36190 29889 ft 492 kts 93°
2026-04-29 14:06 29.23854 92.40111 30198 ft 493 kts 94°
2026-04-29 14:06 29.23751 92.44028 30536 ft 492 kts 94°
2026-04-29 14:06 29.23645 92.47948 30829 ft 493 kts 94°
2026-04-29 14:07 29.23535 92.51872 31026 ft 494 kts 93°
2026-04-29 14:07 29.23718 92.55787 31083 ft 492 kts 83°
2026-04-29 14:07 29.25685 92.63240 31102 ft 490 kts 64°
2026-04-29 14:08 29.29037 92.70043 31102 ft 491 kts 60°
2026-04-29 14:08 29.32409 92.76836 31119 ft 490 kts 60°
2026-04-29 14:09 29.35766 92.83651 31136 ft 491 kts 61°
2026-04-29 14:09 29.39097 92.90422 31140 ft 490 kts 60°
2026-04-29 14:10 29.42459 92.97231 31145 ft 490 kts 60°
2026-04-29 14:10 29.45819 93.04040 31153 ft 490 kts 60°
2026-04-29 14:11 29.49163 93.10856 31158 ft 490 kts 61°
2026-04-29 14:11 29.52497 93.17678 31163 ft 490 kts 61°
2026-04-29 14:12 29.55836 93.24497 31140 ft 490 kts 61°
2026-04-29 14:12 29.59178 93.31327 31128 ft 490 kts 61°
2026-04-29 14:13 29.62514 93.38159 31136 ft 490 kts 61°
2026-04-29 14:13 29.65840 93.45001 31133 ft 490 kts 61°
2026-04-29 14:14 29.69162 93.51854 31123 ft 490 kts 61°
2026-04-29 14:14 29.72486 93.58705 31130 ft 490 kts 61°
2026-04-29 14:15 29.75789 93.65514 31130 ft 490 kts 61°
2026-04-29 14:15 29.79101 93.72372 31115 ft 491 kts 61°
2026-04-29 14:16 29.82419 93.79248 31115 ft 491 kts 61°
2026-04-29 14:16 29.85739 93.86133 31117 ft 492 kts 61°
2026-04-29 14:17 29.88955 93.93082 31106 ft 492 kts 67°
2026-04-29 14:17 29.90865 94.00647 31136 ft 492 kts 78°
2026-04-29 14:18 29.91921 94.06008 31146 ft 495 kts 78°
2026-04-29 14:18 29.93476 94.13861 31172 ft 510 kts 78°
2026-04-29 14:19 29.95060 94.21865 31179 ft 514 kts 78°
2026-04-29 14:19 29.96634 94.29876 31190 ft 515 kts 78°
2026-04-29 14:20 29.98209 94.37935 31188 ft 515 kts 78°
2026-04-29 14:20 29.99779 94.46007 31194 ft 516 kts 78°
2026-04-29 14:21 30.01360 94.54094 31194 ft 516 kts 78°
2026-04-29 14:21 30.02927 94.62172 31179 ft 516 kts 78°
2026-04-29 14:22 30.04486 94.70256 31202 ft 516 kts 78°
2026-04-29 14:22 30.06038 94.78347 31198 ft 515 kts 78°
2026-04-29 14:23 30.07588 94.86421 31202 ft 516 kts 78°
2026-04-29 14:23 30.09131 94.94491 31193 ft 515 kts 78°
2026-04-29 14:24 30.10416 95.01217 31178 ft 516 kts 78°
2026-04-29 14:24 30.12014 95.09286 31188 ft 517 kts 78°
2026-04-29 14:25 30.13644 95.17390 31194 ft 518 kts 78°
2026-04-29 14:25 30.15265 95.25486 31202 ft 518 kts 78°
2026-04-29 14:26 30.17121 95.34910 31212 ft 518 kts 78°
2026-04-29 14:26 30.18707 95.43023 31233 ft 517 kts 78°
2026-04-29 14:27 30.20294 95.51128 31246 ft 517 kts 78°
2026-04-29 14:28 30.22412 95.61975 31245 ft 517 kts 78°
2026-04-29 14:28 30.23983 95.70090 31249 ft 517 kts 78°
2026-04-29 14:29 30.25549 95.78201 31240 ft 517 kts 78°
2026-04-29 14:29 30.27111 95.86315 31249 ft 516 kts 77°
2026-04-29 14:30 30.28656 95.94375 31223 ft 516 kts 78°
2026-04-29 14:30 30.30200 96.02479 31221 ft 516 kts 78°
2026-04-29 14:31 30.31809 96.10570 31195 ft 516 kts 77°
2026-04-29 14:31 30.33457 96.18651 31185 ft 516 kts 77°
2026-04-29 14:32 30.35090 96.26737 31163 ft 516 kts 77°
2026-04-29 14:32 30.36694 96.34828 31139 ft 516 kts 77°
2026-04-29 14:33 30.38296 96.42925 31124 ft 516 kts 77°
2026-04-29 14:33 30.39895 96.51024 31120 ft 516 kts 77°
2026-04-29 14:34 30.41491 96.59129 31116 ft 516 kts 77°
2026-04-29 14:34 30.43085 96.67257 31117 ft 516 kts 77°
2026-04-29 14:35 30.44666 96.75368 31111 ft 516 kts 77°
2026-04-29 14:35 30.46247 96.83494 31102 ft 516 kts 77°
2026-04-29 14:36 30.47815 96.91566 31077 ft 517 kts 77°
2026-04-29 14:36 30.49391 96.99698 31049 ft 518 kts 77°
2026-04-29 14:37 30.50959 97.07851 31061 ft 518 kts 77°
2026-04-29 14:37 30.51911 97.16113 31030 ft 518 kts 91°
2026-04-29 14:38 30.51310 97.24440 31030 ft 518 kts 96°
2026-04-29 14:38 30.50631 97.32755 31011 ft 518 kts 96°
2026-04-29 14:39 30.49956 97.41079 31013 ft 518 kts 96°
2026-04-29 14:39 30.49267 97.49404 31012 ft 518 kts 96°
2026-04-29 14:40 30.48562 97.57718 31019 ft 518 kts 96°
2026-04-29 14:40 30.47851 97.66032 31006 ft 519 kts 96°
2026-04-29 14:41 30.47142 97.74312 31002 ft 519 kts 96°
2026-04-29 14:41 30.46425 97.82640 31008 ft 520 kts 96°
2026-04-29 14:42 30.45697 97.90976 31010 ft 519 kts 96°
2026-04-29 14:42 30.44968 97.99303 31013 ft 520 kts 96°
2026-04-29 14:43 30.44234 98.07650 31017 ft 521 kts 96°
2026-04-29 14:43 30.43494 98.15999 31021 ft 521 kts 96°
2026-04-29 14:44 30.42763 98.24358 31038 ft 521 kts 95°
2026-04-29 14:44 30.42118 98.32720 31040 ft 521 kts 95°
2026-04-29 14:45 30.41499 98.41100 31054 ft 522 kts 94°
2026-04-29 14:45 30.40855 98.49432 31076 ft 522 kts 95°
2026-04-29 14:46 30.40181 98.57812 31081 ft 522 kts 95°
2026-04-29 14:46 30.39502 98.66194 31092 ft 523 kts 95°
2026-04-29 14:47 30.38832 98.74583 31084 ft 523 kts 95°
2026-04-29 14:47 30.38155 98.82960 31087 ft 523 kts 95°
2026-04-29 14:48 30.37467 98.91364 31084 ft 524 kts 95°
2026-04-29 14:48 30.36775 98.99770 31100 ft 525 kts 95°
2026-04-29 14:49 30.36068 99.08177 31104 ft 525 kts 95°
2026-04-29 14:49 30.35360 99.16604 31109 ft 525 kts 95°
2026-04-29 14:50 30.34651 99.25026 31125 ft 526 kts 95°
2026-04-29 14:50 30.33932 99.33459 31124 ft 526 kts 95°
2026-04-29 14:51 30.33211 99.41888 31144 ft 527 kts 95°
2026-04-29 14:51 30.32479 99.50328 31155 ft 527 kts 94°
2026-04-29 14:52 30.31735 99.58769 31153 ft 528 kts 94°
2026-04-29 14:52 30.30990 99.67219 31152 ft 528 kts 94°
2026-04-29 14:53 30.30249 99.75682 31158 ft 529 kts 94°
2026-04-29 14:53 30.29489 99.84140 31145 ft 529 kts 94°
2026-04-29 14:54 30.28730 99.92605 31143 ft 529 kts 94°
2026-04-29 14:54 30.27969 100.01018 31131 ft 530 kts 94°
2026-04-29 14:55 30.27289 100.09517 31126 ft 530 kts 93°
2026-04-29 14:55 30.26699 100.18009 31127 ft 530 kts 92°
2026-04-29 14:56 30.26099 100.26510 31131 ft 530 kts 92°
2026-04-29 14:56 30.25451 100.35010 31143 ft 531 kts 93°
2026-04-29 14:57 30.24780 100.43510 31158 ft 531 kts 93°
2026-04-29 14:57 30.24117 100.52017 31158 ft 531 kts 93°
2026-04-29 14:58 30.23464 100.60525 31167 ft 531 kts 92°
2026-04-29 14:58 30.22808 100.69037 31159 ft 532 kts 93°
2026-04-29 14:59 30.22128 100.77560 31160 ft 533 kts 93°
2026-04-29 14:59 30.21446 100.86044 31157 ft 532 kts 93°
2026-04-29 15:00 30.20751 100.94556 31156 ft 533 kts 93°
2026-04-29 15:00 30.20048 101.03100 31185 ft 534 kts 93°
2026-04-29 15:01 30.19347 101.11655 31188 ft 534 kts 93°
2026-04-29 15:01 30.18651 101.20200 31186 ft 534 kts 93°
2026-04-29 15:02 30.17938 101.28728 31184 ft 533 kts 93°
2026-04-29 15:02 30.17221 101.37258 31186 ft 533 kts 93°
2026-04-29 15:03 30.16498 101.45789 31194 ft 534 kts 93°
2026-04-29 15:03 30.15765 101.54322 31195 ft 534 kts 93°
2026-04-29 15:04 30.15038 101.62858 31204 ft 534 kts 93°
2026-04-29 15:04 30.14773 101.71392 31208 ft 529 kts 80°
2026-04-29 15:05 30.16514 101.79515 31218 ft 516 kts 62°
2026-04-29 15:05 30.19350 101.87124 31196 ft 516 kts 61°
2026-04-29 15:06 30.22165 101.94776 31222 ft 518 kts 62°
2026-04-29 15:06 30.24962 102.02432 31226 ft 517 kts 62°
2026-04-29 15:07 30.27773 102.10109 31249 ft 518 kts 62°
2026-04-29 15:07 30.30579 102.17771 31237 ft 515 kts 62°
2026-04-29 15:08 30.33355 102.25351 31258 ft 515 kts 61°
2026-04-29 15:08 30.36145 102.32996 31258 ft 516 kts 62°
2026-04-29 15:09 30.38928 102.40665 31282 ft 516 kts 62°
2026-04-29 15:09 30.41692 102.48313 31304 ft 514 kts 61°
2026-04-29 15:10 30.44449 102.55937 31302 ft 513 kts 61°
2026-04-29 15:10 30.47203 102.63562 31288 ft 511 kts 61°
2026-04-29 15:11 30.49941 102.71159 31285 ft 511 kts 61°
2026-04-29 15:11 30.52679 102.78767 31302 ft 511 kts 61°
2026-04-29 15:11 30.54021 102.82522 31289 ft 497 kts 61°
2026-04-29 15:12 30.55313 102.86152 31284 ft 491 kts 60°
2026-04-29 15:12 30.57914 102.93444 31159 ft 488 kts 60°
2026-04-29 15:12 30.59216 102.97077 30925 ft 486 kts 61°
2026-04-29 15:13 30.60511 103.00693 30690 ft 485 kts 60°
2026-04-29 15:13 30.61798 103.04308 30453 ft 484 kts 61°
2026-04-29 15:13 30.63062 103.07929 30208 ft 483 kts 62°
2026-04-29 15:13 30.64301 103.11546 29842 ft 480 kts 62°
2026-04-29 15:14 30.65518 103.15148 29113 ft 478 kts 62°
2026-04-29 15:14 30.66716 103.18733 28408 ft 476 kts 64°
2026-04-29 15:14 30.67366 103.21169 27909 ft 478 kts 70°
2026-04-29 15:14 30.67981 103.24972 27150 ft 482 kts 78°
2026-04-29 15:15 30.68130 103.28878 26374 ft 487 kts 88°
2026-04-29 15:15 30.67844 103.32811 25595 ft 488 kts 94°
2026-04-29 15:15 30.67479 103.36726 24819 ft 487 kts 94°
2026-04-29 15:15 30.67115 103.40608 24056 ft 480 kts 95°
2026-04-29 15:16 30.66756 103.44434 23224 ft 473 kts 95°
2026-04-29 15:16 30.66405 103.48186 22495 ft 462 kts 95°
2026-04-29 15:16 30.66065 103.51861 21761 ft 453 kts 95°
2026-04-29 15:16 30.65732 103.55462 21065 ft 444 kts 95°
2026-04-29 15:17 30.65356 103.58980 20401 ft 437 kts 100°
2026-04-29 15:17 30.64475 103.62328 19748 ft 431 kts 113°
2026-04-29 15:17 30.63015 103.65326 19139 ft 423 kts 126°
2026-04-29 15:17 30.61079 103.67851 18529 ft 415 kts 139°
2026-04-29 15:18 30.58775 103.69816 17867 ft 407 kts 152°
2026-04-29 15:18 30.56270 103.71123 17677 ft 384 kts 163°
2026-04-29 15:18 30.53778 103.71937 17576 ft 362 kts 167°
2026-04-29 15:18 30.51369 103.72489 17413 ft 343 kts 177°
2026-04-29 15:19 30.49044 103.72672 17262 ft 328 kts 179°
2026-04-29 15:19 30.46814 103.72832 17125 ft 315 kts 179°
2026-04-29 15:19 30.44669 103.72983 16987 ft 303 kts 179°
2026-04-29 15:19 30.42601 103.73127 16859 ft 292 kts 179°
2026-04-29 15:20 30.40614 103.73264 16725 ft 282 kts 179°
2026-04-29 15:20 30.38699 103.73216 16606 ft 269 kts 193°
2026-04-29 15:20 30.36918 103.72621 16254 ft 267 kts 206°
2026-04-29 15:20 30.35194 103.71803 15862 ft 268 kts 205°
2026-04-29 15:21 30.33477 103.70999 15491 ft 264 kts 205°
2026-04-29 15:21 30.31812 103.70224 15139 ft 258 kts 205°
2026-04-29 15:21 30.30160 103.69458 14772 ft 254 kts 204°
2026-04-29 15:21 30.28535 103.68707 14472 ft 248 kts 204°
2026-04-29 15:22 30.26954 103.67977 14081 ft 241 kts 204°
2026-04-29 15:22 30.25429 103.67273 13715 ft 232 kts 204°
2026-04-29 15:22 30.23954 103.66595 13385 ft 224 kts 204°
2026-04-29 15:22 30.22528 103.65936 13083 ft 218 kts 204°
2026-04-29 15:23 30.21130 103.65289 12792 ft 216 kts 204°
2026-04-29 15:23 30.19717 103.64723 12486 ft 217 kts 192°
2026-04-29 15:23 30.18222 103.64905 12182 ft 221 kts 161°
2026-04-29 15:23 30.17002 103.65985 11846 ft 227 kts 128°
2026-04-29 15:24 30.16345 103.67653 11502 ft 230 kts 111°
2026-04-29 15:24 30.15765 103.69380 11152 ft 231 kts 113°
2026-04-29 15:24 30.15151 103.71101 10799 ft 232 kts 114°
2026-04-29 15:24 30.14533 103.72844 10346 ft 238 kts 111°
2026-04-29 15:25 30.14426 103.74740 9919 ft 241 kts 77°
2026-04-29 15:25 30.15241 103.76385 9532 ft 237 kts 42°
2026-04-29 15:25 30.16653 103.77240 9189 ft 227 kts 12°
2026-04-29 15:25 30.18155 103.77674 8881 ft 218 kts 17°
2026-04-29 15:26 30.19540 103.78319 8584 ft 212 kts 22°
2026-04-29 15:26 30.20875 103.79012 8299 ft 209 kts 23°
2026-04-29 15:26 30.22190 103.79761 7889 ft 213 kts 25°
2026-04-29 15:26 30.23531 103.80473 7564 ft 210 kts 22°
2026-04-29 15:27 30.24868 103.81111 7282 ft 205 kts 21°
2026-04-29 15:27 30.26171 103.81716 7017 ft 199 kts 21°
2026-04-29 15:27 30.27437 103.82302 6766 ft 192 kts 21°
2026-04-29 15:27 30.28657 103.82866 6541 ft 187 kts 21°
2026-04-29 15:28 30.29865 103.83425 6289 ft 186 kts 21°
2026-04-29 15:28 30.30661 103.83792 6123 ft 186 kts 21°
2026-04-29 15:28 30.32255 103.84530 5795 ft 182 kts 21°
2026-04-29 15:28 30.33418 103.85069 5559 ft 178 kts 21°
2026-04-29 15:29 30.34540 103.85589 5321 ft 175 kts 21°
2026-04-29 15:29 30.36732 103.86604 4886 ft 158 kts 21°
2026-04-29 15:30 30.38595 103.87467 4491 ft 138 kts 22°
2026-04-29 15:30 30.39483 103.87879 4313 ft 137 kts 22°
2026-04-29 15:30 30.40377 103.88294 4140 ft 139 kts 23°
2026-04-29 15:30 30.41287 103.88715 3956 ft 142 kts 23°
2026-04-29 15:31 30.42203 103.89140 3771 ft 142 kts 23°
2026-04-29 15:31 30.43121 103.89566 3582 ft 142 kts 24°
2026-04-29 15:31 30.44042 103.89993 3402 ft 142 kts 23°
2026-04-29 15:31 30.44963 103.90421 3213 ft 143 kts 24°
2026-04-29 15:32 30.45884 103.90849 3011 ft 142 kts 24°
2026-04-29 15:32 30.46795 103.91280 2815 ft 141 kts 24°
2026-04-29 15:32 30.47703 103.91701 2705 ft 141 kts 24°
2026-04-29 15:32 30.48614 103.92118 2473 ft 140 kts 23°
2026-04-29 15:33 30.49515 103.92527 2280 ft 138 kts 22°
2026-04-29 15:33 30.50410 103.92942 2064 ft 138 kts 23°
2026-04-29 15:33 30.51296 103.93363 1863 ft 137 kts 22°
2026-04-29 15:33 30.52189 103.93767 1691 ft 137 kts 21°
2026-04-29 15:34 30.52961 103.94143 1665 ft 100 kts 22°
2026-04-29 15:34 30.53462 103.94373 1667 ft 59 kts 21°
2026-04-29 15:34 30.53867 103.94561 1652 ft 67 kts 22°
2026-04-29 15:34 30.54176 103.94631 1648 ft 25 kts 313°
2026-04-29 15:35 30.54273 103.94597 1647 ft 11 kts 350°
2026-04-29 15:35 30.54371 103.94579 1648 ft 17 kts 357°
2026-04-29 15:35 30.54469 103.94612 1647 ft 16 kts 21°
2026-04-29 15:35 30.54591 103.94667 1647 ft 22 kts 21°
2026-04-29 15:36 30.54740 103.94735 1647 ft 18 kts 23°
2026-04-29 15:36 30.54816 103.94755 1647 ft 8 kts 334°
2026-04-29 15:36 30.54847 103.94677 1647 ft 14 kts 297°
2026-04-29 15:36 30.54948 103.94608 1647 ft 21 kts 336°
2026-04-29 15:37 30.55104 103.94531 1647 ft 27 kts 337°
2026-04-29 15:37 30.55270 103.94450 1647 ft 24 kts 336°
2026-04-29 15:37 30.55419 103.94376 1647 ft 18 kts 338°
2026-04-29 15:37 30.55510 103.94327 1647 ft 14 kts 333°
2026-04-29 15:38 30.55615 103.94277 1647 ft 20 kts 338°
2026-04-29 15:38 30.55757 103.94209 1647 ft 18 kts 337°
2026-04-29 15:38 30.55839 103.94182 1647 ft 12 kts 17°
2026-04-29 15:38 30.55937 103.94234 1647 ft 19 kts 24°
2026-04-29 15:39 30.56073 103.94295 1647 ft 21 kts 21°
2026-04-29 15:39 30.56222 103.94364 1647 ft 21 kts 23°
2026-04-29 15:39 30.56382 103.94439 1647 ft 28 kts 22°
2026-04-29 15:39 30.56548 103.94516 1647 ft 24 kts 22°
2026-04-29 15:40 30.56715 103.94597 1647 ft 24 kts 22°
2026-04-29 15:40 30.56829 103.94652 1647 ft 11 kts 22°
2026-04-29 15:40 30.56866 103.94704 1647 ft 10 kts 90°
2026-04-29 15:40 30.56834 103.94795 1647 ft 15 kts 112°
2026-04-29 15:41 30.56798 103.94899 1647 ft 11 kts 111°
2026-04-29 15:41 30.56780 103.94955 1647 ft 1 kts 112°
2026-04-29 15:41 30.56774 103.94971 1647 ft 5 kts 112°
2026-04-29 15:41 30.56787 103.95017 1647 ft 9 kts 26°
2026-04-29 15:42 30.56833 103.95040 1647 ft 5 kts 26°
2026-04-29 15:42 30.56853 103.95052 1647 ft 4 kts 27°
2026-04-29 15:42 30.56870 103.95062 1647 ft 2 kts 28°
2026-04-29 15:42 30.56886 103.95072 1647 ft 4 kts 27°
2026-04-29 15:43 30.56896 103.95078 1647 ft 1 kts 28°
2026-04-29 15:43 30.56898 103.95079 1647 ft 0 kts 27°